レモン彗星

C/2019 Q1 ( Lemmon )

English version
Home page
Updated on June 14, 2021

---------------------------------------------------------------------

・ プロフィール

発見日 2019年8月28日
発見光度 20.6等
発見者 D. Rankin (Mount Lemmon Survey)

・ 写真集

・ 軌道要素

Epoch 2020 July 10.0 TT = JDT 2459040.5
T 2020 July 19.72093 TT                                 Rudenko
q   4.9970490            (2000.0)            P               Q
z  -0.0001643      Peri.   55.92591     +0.92267075     -0.26831316
 +/-0.0000012      Node    42.33778     -0.30134566     -0.94983032
e   1.0008210      Incl.  155.72158     +0.24056075     -0.16071843
From 235 observations 2019 Aug. 28-2021 May 20, mean residual 0".5.

・ 光度変化

        m1 = 9.0 + 5 logΔ + 10.0 log r(t + 300)

---------------------------------------------------------------------

軌道要素はM.P.E.C. 2021-L04に掲載されたものです。
光度グラフはComet for Windowsで作成したものです。

---------------------------------------------------------------------

Copyright(C) Seiichi Yoshida (comet@aerith.net). All rights reserved.